Weather History for Mineral Wells, TX

Change the Weather History Date:

Friday, January 17, 2014

  Actual Average Record
Temperature  
Mean Temperature 46 °F -  
Max Temperature 55 °F 56 °F 78 °F (2000)
Min Temperature 34 °F 32 °F 19 °F (2003)
Degree Days  
Heating Degree Days 20    
Moisture  
Dew Point 16 °F    
Average Humidity 34    
Maximum Humidity 54    
Minimum Humidity 17    
Precipitation  
Precipitation 0.00 in - - ()
Sea Level Pressure  
Sea Level Pressure 30.27 in    
Wind  
Wind Speed 6 mph (NW)    
Max Wind Speed 15 mph    
Max Gust Speed 17 mph    
Visibility 10 miles    
Events      
Averages and records for this station are not official NWS values.
T = Trace of Precipitation, MM = Missing Value Source: NWS Daily Summary

Daily Weather History Graph

Daily Weather History Graph

Search for Another Location

Airport:

Trip Planner

Search our weather history database for the weather conditions in past years. The results will help you decide how hot, cold, wet, or windy it might be!

Date:

Astronomy

Jan. 17, 2014 Rise Set
Actual Time 7:34 AM CST 5:50 PM CST
Civil Twilight 7:07 AM CST 6:17 PM CST
Nautical Twilight 6:37 AM CST 6:47 PM CST
Astronomical Twilight 6:07 AM CST 7:17 PM CST
Moon 7:30 PM CST (1/17) 8:09 AM CST (1/17)
Length of Visible Light 11h 09m
Length of Day
10h 16m
Full, 98% of the Moon is Illuminated
Jan 17
Full
Jan 23
Last Quarter
Jan 30
New
Feb 6
First Quarter
Feb 14
Full

Hourly Weather History & Observations

Time (CST) Temp. Windchill Dew Point Humidity Pressure Visibility Wind Dir Wind Speed Gust Speed Precip Events Conditions
12:53 AM 42.1 °F 38.4 °F 21.0 °F 43% 30.23 in 10.0 mi WNW 5.8 mph - N/A   Clear
1:53 AM 41.0 °F 35.2 °F 19.9 °F 43% 30.23 in 10.0 mi WNW 9.2 mph - N/A   Clear
2:53 AM 39.9 °F 35.1 °F 17.1 °F 40% 30.24 in 10.0 mi West 6.9 mph - N/A   Mostly Cloudy
3:53 AM 39.0 °F 35.7 °F 18.0 °F 43% 30.25 in 10.0 mi West 4.6 mph - N/A   Mostly Cloudy
4:53 AM 37.9 °F - 18.0 °F 45% 30.26 in 10.0 mi Calm Calm - N/A   Overcast
5:53 AM 39.0 °F 34.0 °F 17.1 °F 41% 30.28 in 10.0 mi North 6.9 mph - N/A   Overcast
6:53 AM 37.9 °F 32.7 °F 17.1 °F 43% 30.31 in 10.0 mi NNE 6.9 mph - N/A   Mostly Cloudy
7:53 AM 37.0 °F - 16.0 °F 42% 30.33 in 10.0 mi Calm Calm - N/A   Clear
8:53 AM 41.0 °F 36.4 °F 17.1 °F 38% 30.36 in 10.0 mi North 6.9 mph - N/A   Clear
9:53 AM 45.0 °F 38.2 °F 12.9 °F 27% 30.38 in 10.0 mi North 15.0 mph - N/A   Clear
10:53 AM 46.9 °F - 12.9 °F 25% 30.38 in 10.0 mi North 10.4 mph - N/A   Clear
11:53 AM 48.9 °F - 12.9 °F 24% 30.35 in 10.0 mi North 6.9 mph - N/A   Clear
12:53 PM 52.0 °F - 12.0 °F 20% 30.31 in 10.0 mi North 9.2 mph - N/A   Clear
1:53 PM 54.0 °F - 10.9 °F 18% 30.27 in 10.0 mi NNW 8.1 mph - N/A   Clear
2:53 PM 55.0 °F - 10.9 °F 17% 30.25 in 10.0 mi WNW 9.2 mph 17.3 mph N/A   Clear
3:53 PM 55.0 °F - 10.9 °F 17% 30.24 in 10.0 mi North 4.6 mph - N/A   Clear
4:53 PM 54.0 °F - 12.9 °F 20% 30.24 in 10.0 mi West 4.6 mph - N/A   Clear
5:53 PM 48.9 °F - 15.1 °F 26% 30.24 in 10.0 mi SW 3.5 mph - N/A   Clear
6:53 PM 48.0 °F - 12.9 °F 24% 30.24 in 10.0 mi SSW 3.5 mph - N/A   Clear
7:53 PM 46.0 °F 43.1 °F 14.0 °F 28% 30.23 in 10.0 mi South 5.8 mph - N/A   Clear
8:53 PM 39.9 °F 34.5 °F 18.0 °F 41% 30.22 in 10.0 mi SSE 8.1 mph - N/A   Clear
9:53 PM 36.0 °F 30.3 °F 19.0 °F 50% 30.22 in 10.0 mi SSE 6.9 mph - N/A   Clear
10:53 PM 36.0 °F 29.0 °F 19.0 °F 50% 30.19 in 10.0 mi South 9.2 mph - N/A   Clear
11:53 PM 34.0 °F - 19.0 °F 54% 30.18 in 10.0 mi Calm Calm - N/A   Clear